When you browse on this site, cookies collect data to enhance your experience and personalize the content and advertising you see.
Visit our Privacy Policy to learn more. By continuing to use the site, you agree to this use of cookies and data.
  • In Sweden
  • List of Countries
  • For 7 days
  • Water Temperature
  • Weather Map
  • Weather Widgets
  • user-avatar
    Login

    Hourly Weather Nampula

    Today, 25 February, Tuesday

    Time Temperature Precipitation Wind Pressure Humidity
    00:00 +19°C° 0.1 mm 0 mps 609 mmHg 62%
    01:00 +21°C° 0.1 mm 1 mps 608 mmHg 64%
    02:00 +20°C° 0.1 mm 1 mps 608 mmHg 67%
    03:00 +20°C° 0 mm 1 mps 607 mmHg 70%
    04:00 +19°C° 0 mm 1 mps 607 mmHg 71%
    05:00 +19°C° 0 mm 1 mps 608 mmHg 71%
    06:00 +19°C° 0 mm 1 mps 608 mmHg 72%
    07:00 +19°C° 0.2 mm 1 mps 609 mmHg 70%
    08:00 +20°C° 0.2 mm 1 mps 609 mmHg 67%
    09:00 +20°C° 0 mm 1 mps 610 mmHg 66%
    10:00 +21°C° 0.7 mm 1 mps 610 mmHg 62%
    11:00 +21°C° 0.7 mm 2 mps 610 mmHg 59%
    12:00 +23°C° 0.7 mm 2 mps 611 mmHg 55%
    13:00 +21°C° 0.6 mm 3 mps 610 mmHg 59%
    14:00 +21°C° 0.6 mm 3 mps 609 mmHg 63%
    15:00 +20°C° 0 mm 4 mps 608 mmHg 69%
    16:00 +19°C° 0.2 mm 4 mps 608 mmHg 72%
    17:00 +19°C° 0.2 mm 4 mps 608 mmHg 75%
    18:00 +17°C° 0.2 mm 5 mps 608 mmHg 78%
    19:00 +18°C° 0.1 mm 4 mps 609 mmHg 80%
    20:00 +17°C° 0.1 mm 3 mps 609 mmHg 82%
    21:00 +17°C° 0.1 mm 2 mps 609 mmHg 84%
    22:00 +18°C° 0 mm 1 mps 610 mmHg 82%
    23:00 +18°C° 0 mm 1 mps 610 mmHg 80%

    Tomorrow, 26 February, Wednesday

    Time Temperature Precipitation Wind Pressure Humidity
    00:00 +18°C° 0 mm 1 mps 610 mmHg 78%
    01:00 +16°C° 0 mm 1 mps 609 mmHg 78%
    02:00 +16°C° 0 mm 1 mps 609 mmHg 78%
    03:00 +16°C° 0 mm 1 mps 608 mmHg 78%
    04:00 +16°C° 0 mm 1 mps 609 mmHg 78%
    05:00 +16°C° 0 mm 1 mps 609 mmHg 79%
    06:00 +15°C° 0 mm 1 mps 609 mmHg 80%
    07:00 +16°C° 0 mm 1 mps 609 mmHg 76%
    08:00 +18°C° 0 mm 1 mps 610 mmHg 73%
    09:00 +18°C° 0 mm 1 mps 610 mmHg 69%
    10:00 +20°C° 0 mm 1 mps 611 mmHg 62%
    11:00 +21°C° 0 mm 2 mps 611 mmHg 55%
    12:00 +23°C° 0 mm 2 mps 611 mmHg 48%
    13:00 +23°C° 0 mm 2 mps 610 mmHg 47%
    14:00 +24°C° 0 mm 3 mps 610 mmHg 46%
    15:00 +24°C° 0 mm 3 mps 609 mmHg 46%
    16:00 +22°C° 0 mm 3 mps 609 mmHg 49%
    17:00 +21°C° 0 mm 3 mps 609 mmHg 53%
    18:00 +20°C° 0 mm 3 mps 609 mmHg 56%
    19:00 +19°C° 0 mm 3 mps 609 mmHg 58%
    20:00 +18°C° 0 mm 2 mps 609 mmHg 60%
    21:00 +18°C° 0 mm 2 mps 609 mmHg 61%
    22:00 +19°C° 0 mm 1 mps 609 mmHg 61%
    23:00 +19°C° 0 mm 1 mps 609 mmHg 62%

    Day after tomorrow, 27 February, Thursday

    Time Temperature Precipitation Wind Pressure Humidity
    00:00 +18°C° 0 mm 1 mps 610 mmHg 62%
    01:00 +18°C° 0 mm 1 mps 609 mmHg 63%
    02:00 +18°C° 0 mm 1 mps 609 mmHg 64%
    03:00 +18°C° 0 mm 1 mps 608 mmHg 64%
    04:00 +16°C° 0 mm 1 mps 608 mmHg 66%
    05:00 +16°C° 0 mm 1 mps 608 mmHg 67%
    06:00 +16°C° 0 mm 1 mps 608 mmHg 68%
    07:00 +18°C° 0 mm 1 mps 609 mmHg 63%
    08:00 +19°C° 0 mm 1 mps 610 mmHg 57%
    09:00 +20°C° 0 mm 1 mps 611 mmHg 52%
    10:00 +21°C° 0 mm 1 mps 611 mmHg 49%
    11:00 +23°C° 0 mm 2 mps 611 mmHg 46%
    12:00 +24°C° 0 mm 2 mps 611 mmHg 43%
    13:00 +25°C° 0 mm 3 mps 610 mmHg 43%
    14:00 +25°C° 0 mm 3 mps 610 mmHg 42%
    15:00 +26°C° 0 mm 3 mps 609 mmHg 42%
    16:00 +23°C° 0 mm 4 mps 609 mmHg 48%
    17:00 +22°C° 0 mm 4 mps 609 mmHg 54%
    18:00 +20°C° 0 mm 4 mps 608 mmHg 60%
    19:00 +20°C° 0 mm 3 mps 608 mmHg 61%
    20:00 +19°C° 0 mm 2 mps 609 mmHg 63%
    21:00 +19°C° 0 mm 2 mps 609 mmHg 64%
    22:00 +19°C° 0 mm 2 mps 609 mmHg 62%
    23:00 +20°C° 0 mm 1 mps 609 mmHg 59%

    28 February, Friday

    Time Temperature Precipitation Wind Pressure Humidity
    00:00 +20°C° 0 mm 1 mps 609 mmHg 57%
    01:00 +20°C° 0 mm 1 mps 609 mmHg 58%
    02:00 +19°C° 0 mm 1 mps 608 mmHg 58%
    03:00 +17°C° 0 mm 0 mps 608 mmHg 59%
    04:00 +17°C° 0 mm 0 mps 608 mmHg 58%
    05:00 +16°C° 0 mm 0 mps 608 mmHg 57%
    06:00 +16°C° 0 mm 0 mps 608 mmHg 57%
    07:00 +18°C° 0 mm 0 mps 609 mmHg 52%
    08:00 +19°C° 0 mm 0 mps 609 mmHg 46%
    09:00 +20°C° 0 mm 0 mps 610 mmHg 41%
    10:00 +24°C° 0 mm 1 mps 610 mmHg 40%
    11:00 +25°C° 0 mm 1 mps 610 mmHg 38%
    12:00 +26°C° 0 mm 2 mps 610 mmHg 36%
    13:00 +26°C° 0 mm 2 mps 610 mmHg 38%
    14:00 +27°C° 0 mm 3 mps 609 mmHg 39%
    15:00 +27°C° 0 mm 3 mps 608 mmHg 40%
    16:00 +26°C° 0 mm 3 mps 608 mmHg 45%
    17:00 +25°C° 0 mm 3 mps 608 mmHg 49%
    18:00 +24°C° 0 mm 3 mps 607 mmHg 54%
    19:00 +22°C° 0 mm 3 mps 608 mmHg 58%
    20:00 +21°C° 0 mm 2 mps 608 mmHg 63%
    21:00 +20°C° 0 mm 2 mps 608 mmHg 68%
    22:00 +21°C° 0 mm 1 mps 608 mmHg 68%
    23:00 +20°C° 0 mm 1 mps 608 mmHg 67%

    29 February, Saturday

    Time Temperature Precipitation Wind Pressure Humidity
    00:00 +18°C° 0 mm 0 mps 608 mmHg 67%
    01:00 +18°C° 0 mm 0 mps 607 mmHg 65%
    02:00 +18°C° 0 mm 0 mps 607 mmHg 64%
    03:00 +17°C° 0 mm 0 mps 607 mmHg 63%
    04:00 +17°C° 0 mm 0 mps 606 mmHg 63%
    05:00 +17°C° 0 mm 0 mps 606 mmHg 62%
    06:00 +18°C° 0 mm 1 mps 606 mmHg 62%
    07:00 +19°C° 0 mm 1 mps 607 mmHg 57%
    08:00 +21°C° 0 mm 1 mps 608 mmHg 51%
    09:00 +22°C° 0 mm 1 mps 609 mmHg 45%
    10:00 +23°C° 0 mm 1 mps 609 mmHg 43%
    11:00 +24°C° 0 mm 1 mps 609 mmHg 42%
    12:00 +25°C° 0 mm 1 mps 609 mmHg 41%
    13:00 +26°C° 0 mm 2 mps 609 mmHg 42%
    14:00 +26°C° 0 mm 2 mps 608 mmHg 43%
    15:00 +26°C° 0 mm 3 mps 608 mmHg 44%
    16:00 +25°C° 0 mm 3 mps 607 mmHg 48%
    17:00 +24°C° 0 mm 3 mps 607 mmHg 52%
    18:00 +22°C° 0 mm 3 mps 607 mmHg 56%
    19:00 +21°C° 0 mm 3 mps 607 mmHg 62%
    20:00 +20°C° 0 mm 3 mps 607 mmHg 69%
    21:00 +18°C° 0 mm 2 mps 607 mmHg 75%
    22:00 +18°C° 0 mm 2 mps 607 mmHg 76%
    23:00 +19°C° 0 mm 1 mps 607 mmHg 77%

    1 March, Sunday

    Time Temperature Precipitation Wind Pressure Humidity
    00:00 +19°C° 0 mm 1 mps 607 mmHg 77%
    01:00 +18°C° 0 mm 1 mps 607 mmHg 76%
    02:00 +18°C° 0 mm 1 mps 606 mmHg 75%
    03:00 +16°C° 0 mm 0 mps 606 mmHg 74%
    04:00 +16°C° 0 mm 0 mps 606 mmHg 74%
    05:00 +16°C° 0 mm 0 mps 606 mmHg 74%
    06:00 +15°C° 0 mm 0 mps 606 mmHg 74%
    07:00 +17°C° 0 mm 0 mps 607 mmHg 69%
    08:00 +20°C° 0 mm 1 mps 608 mmHg 63%
    09:00 +21°C° 0 mm 1 mps 609 mmHg 57%
    10:00 +23°C° 0 mm 1 mps 609 mmHg 50%
    11:00 +24°C° 0 mm 2 mps 609 mmHg 44%
    12:00 +26°C° 0 mm 2 mps 609 mmHg 38%
    13:00 +26°C° 0 mm 3 mps 609 mmHg 39%
    14:00 +26°C° 0 mm 3 mps 608 mmHg 39%
    15:00 +26°C° 0 mm 4 mps 608 mmHg 40%
    16:00 +25°C° 0 mm 4 mps 607 mmHg 46%
    17:00 +22°C° 0 mm 4 mps 607 mmHg 52%
    18:00 +21°C° 0 mm 3 mps 607 mmHg 58%
    19:00 +20°C° 0 mm 3 mps 607 mmHg 63%
    20:00 +19°C° 0 mm 2 mps 607 mmHg 68%
    21:00 +18°C° 0 mm 2 mps 607 mmHg 73%
    22:00 +19°C° 0 mm 1 mps 607 mmHg 70%
    23:00 +19°C° 0 mm 1 mps 608 mmHg 67%
    Show more